KN1OBI-13 Weather Reports


time (UTC)temp
C
wind
direction
speed
KPH
gust
KPH
rain 1hr
cm
rain 24hr
cm
rain mn
cm
humidity
%
barometer
mb
20260901124631 17 227 0.0 0.0 0.10 0.33 0.00 94 997.0
20260901123631 17 227 0.0 0.0 0.05 0.30 0.00 94 997.3
20260901122631 17 226 0.0 0.0 0.10 0.28 0.00 94 997.0
20260901121631 17 254 0.0 1.6 0.53 0.28 0.00 93 997.0
20260901120631 17 253 0.0 0.0 0.53 0.18 0.00 93 997.3
20260901115631 17 253 0.0 0.0 0.23 0.08 0.00 93 996.9
20260901114631 17 253 0.0 0.0 0.18 0.05 0.00 93 997.3
20260901113631 17 253 0.0 0.0 0.05 0.00 0.00 92 997.4
20260901112631 18 253 0.0 0.0 0.05 0.00 0.00 92 997.2
20260901111631 17 253 0.0 0.0 0.00 0.00 0.00 92 997.3
20260901110631 18 253 0.0 0.0 0.00 0.00 0.00 92 997.0
20260901105631 18 253 0.0 0.0 0.00 0.00 0.00 92 997.1
20260901104631 17 253 0.0 0.0 0.00 0.00 0.00 92 997.0
20260901103631 17 253 0.0 0.0 0.00 0.00 0.00 92 996.9
20260901102631 17 253 0.0 0.0 0.00 0.00 0.00 91 996.8
20260901101631 17 253 0.0 0.0 0.00 0.00 0.00 91 996.8
20260901100631 18 253 0.0 0.0 0.00 0.00 0.00 91 996.8
20260901095631 17 253 0.0 1.6 0.00 0.00 0.00 90 996.8
20260901094631 17 252 0.0 0.0 0.00 0.00 0.00 90 996.7
20260901093631 18 264 0.0 0.0 0.00 0.00 0.00 90 996.8
20260901092631 18 264 0.0 0.0 0.00 0.00 0.00 89 996.9
20260901091631 18 264 0.0 0.0 0.00 0.00 0.00 89 996.9
20260901090631 18 264 0.0 0.0 0.00 0.00 0.00 89 996.9
20260901085631 18 264 0.0 0.0 0.00 0.00 0.00 89 996.6
20260901084631 18 264 0.0 0.0 0.00 0.00 0.00 88 997.0
20260901083631 18 264 0.0 0.0 0.00 0.00 0.00 88 996.8
20260901082631 18 264 0.0 0.0 0.00 0.00 0.00 88 996.8
20260901081631 18 264 0.0 0.0 0.00 0.00 0.00 87 996.8
20260901080631 18 264 0.0 0.0 0.00 0.00 0.00 87 997.1
20260901075631 18 291 0.0 3.2 0.00 0.00 0.00 87 997.0
20260901074631 18 161 0.0 0.0 0.00 0.00 0.00 87 997.1
20260901073631 18 277 0.0 1.6 0.00 0.00 0.00 87 997.5
20260901072631 18 283 0.0 0.0 0.00 0.00 0.00 86 997.4
20260901071631 18 283 0.0 0.0 0.00 0.00 0.00 86 997.5
20260901070631 18 284 0.0 3.2 0.00 0.00 0.00 85 997.5
20260901065631 18 273 0.0 3.2 0.00 0.00 0.00 85 997.4
20260901064631 18 254 0.0 0.0 0.00 0.00 0.00 84 997.4
20260901063631 18 253 0.0 0.0 0.00 0.00 0.00 84 997.4
20260901062631 18 253 0.0 0.0 0.00 0.00 0.00 84 997.4
20260901061631 18 250 0.0 1.6 0.00 0.00 0.00 84 997.4
20260901060631 18 287 3.2 4.8 0.00 0.00 0.00 84 997.5
20260901055631 18 273 1.6 4.8 0.00 0.00 0.00 84 997.6
20260901054631 18 280 0.0 1.6 0.00 0.00 0.00 84 997.5
20260901053631 18 316 0.0 1.6 0.00 0.00 0.00 84 997.9
20260901052631 18 262 0.0 3.2 0.00 0.00 0.00 83 997.9
20260901051631 18 265 0.0 4.8 0.00 0.00 0.00 82 997.6
20260901050631 18 232 0.0 1.6 0.00 0.00 0.00 82 998.0
20260901045631 18 263 4.8 4.8 0.00 0.00 0.00 81 998.1
20260901044631 18 246 0.0 1.6 0.00 0.00 0.00 81 997.9
20260901043631 18 323 0.0 1.6 0.00 0.00 0.00 80 998.0
20260901042631 18 287 0.0 3.2 0.00 0.00 0.00 80 998.2
20260901041631 18 317 0.0 4.8 0.00 0.00 0.00 80 998.0
20260901040631 18 283 0.0 3.2 0.00 0.00 0.00 79 998.0
20260901035631 18 274 0.0 8.0 0.00 0.00 0.00 79 998.0
20260901034631 18 213 3.2 4.8 0.00 0.00 0.00 78 998.1
20260901033631 18 185 0.0 3.2 0.00 0.00 0.00 79 998.0
20260901032631 19 244 0.0 4.8 0.00 0.00 0.00 79 998.2
20260901031631 19 245 0.0 4.8 0.00 0.00 0.00 79 998.2
20260901030631 19 299 0.0 1.6 0.00 0.00 0.00 78 998.1
20260901025631 19 258 3.2 4.8 0.00 0.00 0.00 79 998.1
20260901024631 19 238 0.0 3.2 0.00 0.00 0.00 80 998.2
20260901023631 19 343 0.0 3.2 0.00 0.00 0.00 81 998.1
20260901022631 20 247 0.0 1.6 0.00 0.00 0.00 81 997.7
20260901021631 20 275 0.0 3.2 0.00 0.00 0.00 81 998.0
20260901020631 20 321 0.0 6.4 0.00 0.00 0.00 81 998.1
20260901015631 20 308 1.6 4.8 0.00 0.00 0.00 81 998.0
20260901014631 20 268 0.0 9.7 0.00 0.00 0.00 81 998.0
20260901013631 20 266 1.6 3.2 0.00 0.00 0.00 82 998.2
20260901012631 20 261 1.6 4.8 0.00 0.00 0.00 81 998.2
20260901011631 20 251 0.0 1.6 0.00 0.00 0.00 80 998.1
20260901010631 20 274 0.0 3.2 0.00 0.00 0.00 78 998.1
20260901005631 20 238 0.0 4.8 0.00 0.00 0.00 77 998.3
20260901004631 20 294 0.0 3.2 0.00 0.00 0.00 78 998.3
20260901003631 20 307 0.0 1.6 0.00 0.00 0.00 78 998.3
20260901002631 20 238 0.0 3.2 0.00 0.00 0.00 75 998.2
20260901001631 20 296 0.0 3.2 0.00 0.00 0.00 77 997.9
20260901000631 21 260 0.0 0.0 0.00 0.00 0.00 74 998.0
20260831235631 21 265 1.6 4.8 0.00 0.00 0.00 74 997.7
20260831234631 21 278 0.0 0.0 0.00 0.00 0.00 75 998.0
20260831233631 21 270 0.0 0.0 0.00 0.00 0.00 76 998.0
20260831232631 21 270 0.0 0.0 0.00 0.00 0.00 75 998.4
20260831231631 21 244 0.0 0.0 0.00 0.00 0.00 75 998.1
20260831230631 21 257 0.0 3.2 0.00 0.00 0.00 72 998.2
20260831225631 22 250 0.0 0.0 0.00 0.00 0.00 71 998.3
20260831224631 22 250 0.0 4.8 0.00 0.00 0.00 71 998.2
20260831223631 22 313 0.0 4.8 0.00 0.00 0.00 70 998.3
20260831222631 22 308 0.0 3.2 0.00 0.00 0.00 69 998.2
20260831221631 22 274 0.0 1.6 0.00 0.00 0.00 71 998.3
20260831220631 23 330 0.0 6.4 0.00 0.00 0.00 66 998.4
20260831215631 23 318 1.6 3.2 0.00 0.00 0.00 66 998.5
20260831214631 24 252 0.0 0.0 0.00 0.00 0.00 67 998.4
20260831213631 25 214 0.0 1.6 0.00 0.00 0.00 64 998.4
20260831212631 26 337 0.0 4.8 0.00 0.00 0.00 62 998.3
20260831211631 24 308 1.6 8.0 0.00 0.00 0.00 68 998.4
20260831210631 23 249 0.0 3.2 0.00 0.00 0.00 66 998.3
20260831205631 24 320 0.0 8.0 0.00 0.00 0.00 68 998.1
20260831204631 24 309 3.2 6.4 0.00 0.00 0.00 63 998.4
20260831203631 25 230 3.2 4.8 0.00 0.00 0.00 61 998.3
20260831202631 25 233 1.6 3.2 0.00 0.00 0.00 63 998.4
20260831201631 24 220 0.0 3.2 0.00 0.00 0.00 65 998.2
20260831200631 25 290 0.0 3.2 0.00 0.00 0.00 60 998.3
20260831195631 25 174 0.0 4.8 0.00 0.00 0.00 61 998.3
20260831194631 25 183 0.0 3.2 0.00 0.00 0.00 59 998.3
20260831193631 24 282 0.0 4.8 0.00 0.00 0.00 60 998.5
20260831192631 24 331 0.0 3.2 0.00 0.00 0.00 61 998.6
20260831191631 25 292 1.6 1.6 0.00 0.00 0.00 58 998.9
20260831190631 25 204 3.2 6.4 0.00 0.00 0.00 58 999.0
20260831185631 25 143 1.6 3.2 0.00 0.00 0.00 59 999.0
20260831184631 25 299 0.0 4.8 0.00 0.00 0.00 58 999.1
20260831183631 25 7 0.0 1.6 0.00 0.00 0.00 59 998.9
20260831182631 25 271 0.0 1.6 0.00 0.00 0.00 61 999.1
20260831181631 25 239 1.6 4.8 0.00 0.00 0.00 56 999.4
20260831180631 24 69 0.0 1.6 0.00 0.00 0.00 59 999.4
20260831175631 23 310 1.6 4.8 0.00 0.00 0.00 60 999.2
20260831174631 23 229 3.2 4.8 0.00 0.00 0.00 60 999.5
20260831173631 23 14 0.0 0.0 0.00 0.00 0.00 59 999.4
20260831172631 23 283 3.2 4.8 0.00 0.00 0.00 63 999.8
20260831171631 23 268 1.6 3.2 0.00 0.00 0.00 64 999.8
20260831170631 22 238 0.0 1.6 0.00 0.00 0.00 65 999.8
20260831165631 22 249 0.0 3.2 0.00 0.00 0.00 67 1000.0
20260831164631 22 259 0.0 1.6 0.00 0.00 0.00 67 1000.0
20260831163631 21 329 1.6 4.8 0.00 0.00 0.00 67 1000.2
20260831162631 21 291 1.6 3.2 0.00 0.00 0.00 71 1000.1
20260831161631 21 263 1.6 3.2 0.00 0.00 0.00 71 1000.4
20260831160631 21 295 0.0 1.6 0.00 0.00 0.00 70 1000.4
20260831155631 21 302 0.0 1.6 0.00 0.00 0.00 70 1000.4
20260831154631 21 287 0.0 0.0 0.00 0.00 0.00 66 1000.4
20260831153631 21 258 0.0 0.0 0.00 0.00 0.00 68 1000.5
20260831152631 21 257 0.0 0.0 0.00 0.00 0.00 66 1000.7
20260831151631 21 82 0.0 1.6 0.00 0.00 0.00 67 1000.6
20260831150631 21 56 0.0 1.6 0.00 0.00 0.00 68 1000.6
20260831145631 21 24 0.0 0.0 0.00 0.00 0.00 67 1000.4
20260831144631 21 18 0.0 6.4 0.00 0.00 0.00 67 1000.3
20260831143631 20 311 0.0 6.4 0.00 0.00 0.00 69 1000.5
20260831142631 20 303 0.0 1.6 0.00 0.00 0.00 70 1000.4
20260831141631 20 76 0.0 1.6 0.00 0.00 0.00 71 1000.4
20260831140631 20 36 0.0 1.6 0.00 0.00 0.00 74 1000.5
20260831135631 19 3 0.0 4.8 0.00 0.00 0.00 71 1000.5
20260831134631 19 82 0.0 3.2 0.00 0.00 0.00 73 1000.4
20260831133631 19 110 0.0 1.6 0.00 0.00 0.00 73 1000.5
20260831132631 18 132 0.0 1.6 0.00 0.00 0.00 73 1000.4
20260831131631 18 57 1.6 6.4 0.00 0.00 0.00 74 1000.3
20260831130631 18 109 0.0 1.6 0.00 0.00 0.00 78 1000.4
20260831125631 18 111 0.0 3.2 0.00 0.00 0.00 81 1000.5